Regional Weather Roundup
Issued by NWS

Home | Current Version | Previous Version | Graphics & Text | Print | Product List | Glossary On
Versions: 1 2 3 4 5 6 7 8 9 10 11 12 13 14 15 16 17 18 19 20 21 22 23 24 25 26 27 28 29 30 31 32 33 34 35 36 37 38 39 40 41 42 43 44 45 46 47 48 49 50
000
ASUS43 KMKX 280100
RWRWI

WISCONSIN REGIONAL WEATHER ROUNDUP
NATIONAL WEATHER SERVICE MILWAUKEE/SULLIVAN WI
800 PM CDT WED AUG 27 2014

NOTE: "FAIR" INDICATES FEW OR NO CLOUDS BELOW 12,000 FEET WITH NO
SIGNIFICANT WEATHER AND/OR OBSTRUCTIONS TO VISIBILITY.

WIZ001-002-006>008-014>016-023>028-280200-
NORTHWEST WISCONSIN

CITY           SKY/WX    TMP DP  RH WIND       PRES   REMARKS
SUPERIOR ARPT  CLEAR     66  57  74 CALM      30.12S
ASHLAND        CLEAR     57  53  86 SE3       30.15S
HAYWARD        CLEAR     61  56  83 CALM      30.15S
SIREN          CLEAR     65  56  73 CALM      30.15S
RICE LAKE      CLEAR     64  56  75 CALM      30.16S
LADYSMITH      CLEAR     66  55  69 N3        30.16F
EAU CLAIRE     NOT AVBL
MENOMONIE      MOCLDY    71  56  58 NE6       30.13S
NEW RICHMOND   CLEAR     68  58  69 CALM      30.14S
OSCEOLA        CLEAR     68  57  68 N5        30.16S
$$

WIZ003>005-009-010-017-018-280200-
NORTH CENTRAL WISCONSIN

CITY           SKY/WX    TMP DP  RH WIND       PRES   REMARKS
WOODRUFF       CLEAR     62  50  65 N8        30.17R
RHINELANDER    CLEAR     58  51  78 CALM      30.17S
EAGLE RIVER    CLEAR     61  47  60 N6        30.16R
LAND O LAKES   CLEAR     59  46  62 NW6       30.18S
PHILLIPS       CLEAR     60  53  77 CALM      30.15S
TOMAHAWK       CLEAR     59  54  84 CALM      30.16S
MEDFORD        CLEAR     62  52  69 N3        30.15F
MERRILL        CLEAR     62  55  76 CALM      30.15S
$$

WIZ029-030-035-036-043>047-280200-
CENTRAL WISCONSIN

CITY           SKY/WX    TMP DP  RH WIND       PRES   REMARKS
WAUSAU         CLEAR     66  51  58 N3        30.13S
MOSINEE        CLEAR     64  54  68 NW3       30.15S
MARSHFIELD     CLEAR     65  55  70 N3        30.14S
STEVENS POINT  CLEAR     66  55  66 NW3       30.14S
WAUPACA        CLEAR     69  64  82 CALM      30.12F
WAUTOMA        NOT AVBL
WISC RAPIDS    CLEAR     67  58  72 N3        30.14S
CAMP DOUGLAS   NOT AVBL
$$

WIZ011>013-019>022-031-037>040-048>050-280200-
NORTHEAST WISCONSIN

CITY           SKY/WX    TMP DP  RH WIND       PRES   REMARKS
ANTIGO         CLEAR     62  53  73 CALM      30.15F
STURGEON BAY   CLEAR     61  55  82 SE5       30.14S
GREEN BAY      CLEAR     64  61  90 CALM      30.13S
MANITOWOC      NOT AVBL
APPLETON       MOCLDY    66  55  68 CALM      30.13S
CLINTONVILLE   CLOUDY    68  59  73 CALM      30.12S
OSHKOSH        PTCLDY    66  59  78 CALM      30.12S
$$

WIZ032>034-041-042-053>061-280200-
SOUTHWEST WISCONSIN

CITY           SKY/WX    TMP DP  RH WIND       PRES   REMARKS
LA CROSSE      PTCLDY    72  60  66 NE3       30.10F
SPARTA         PTCLDY    71  58  64 CALM      30.12S
VIROQUA        FAIR      67  62  83 CALM      30.13F
BOSCOBEL       MOCLDY    69  62  78 CALM      30.10F
PRAIRIE DU CHI PTCLDY    71  61  70 NE3       30.09F
PLATTEVILLE    FAIR      68  63  84 N3        30.11S
$$

WIZ056-057-062-063-064-067-068-280200-
SOUTH CENTRAL WISCONSIN

CITY           SKY/WX    TMP DP  RH WIND       PRES   REMARKS
BARABOO/DELLS  MOCLDY    69  60  72 CALM      30.12S
LONE ROCK      NOT AVBL
WATERTOWN      MOCLDY    69  61  75 CALM      30.11F
MADISON        MOCLDY    69  60  73 N3        30.10F
MIDDLETON      FAIR      68  60  76 CALM      30.11F
MONROE         PTCLDY    68  61  77 NE3       30.10F
JANESVILLE     CLEAR     72  59  64 NE6       30.09F
$$

WIZ051-052-058>065-066-070>072-280200-
SOUTHEAST WISCONSIN

CITY           SKY/WX    TMP DP  RH WIND       PRES   REMARKS
MILWAUKEE      MOCLDY    66  60  81 E7        30.12F
WAUKESHA       MOCLDY    64  61  88 E7        30.13F
MILWAUKEE/TIMM CLEAR     66  57  72 E6        30.13F
RACINE         MOCLDY    66  61  84 NE7       30.13F
BURLINGTON     MOCLDY    65  61  86 E5        30.12F
KENOSHA        MOCLDY    64  61  90 NE7       30.12F
FOND DU LAC    PTCLDY    68  56  65 E5        30.12S
SHEBOYGAN      PTCLDY    60  56  86 CALM      30.14S
WEST BEND      PTCLDY    63  55  77 E3        30.14S
JUNEAU         MOCLDY    69  59  71 CALM      30.13S
$$

LSZ147-162-280200-
LAKE SUPERIOR

STATION/POSITION TIME  TEMP    WIND        PRES    WAVE
                       AIR SEA DIR/SP/G            HT/PER
                 (UTC) (F)     (DEG/KT/KT) (MB)    (FT/S)
W MID LAKE BUOY  2350   58 56  200/  6/  6 1021.2F   0
DEVILS ISLAND    0000   62     160/  5/  7 1020.8F
PORT WING        0000   70     190/  3/  4 1020.3F
SAXON HARBOR     0040   60        CALM     1021.0
$$

LMZ867-665-643>646-280200-
LAKE MICHIGAN

STATION/POSITION TIME  TEMP    WIND        PRES    WAVE
                       AIR SEA DIR/SP/G            HT/PER
                 (UTC) (F)     (DEG/KT/KT) (MB)    (FT/S)
N MID LAKE BUOY  2350   64 67  100/  2/  4 1021.1S   0
NORTHPORT PIER   0000   65     160/  5/  7 1020.7S
SISTER BAY       0026   64     140/  5/  7   N/A
KEWAUNEE LAKESHO 0000   65     150/  4/  6 1019.7F
SHEBOYGAN LAKESH 0000   66 67   90/  6/  6 1020.7F
ATWATER BUOY     0000   67      60/  8/  8 1021.4S
MILWAUKEE LAKESH 0000   67      70/  7/  8   N/A
S MID LAKE BUOY  2350   67 70   20/ 10/ 12 1020.0F   1/ 2
KENOSHA   LAKESH 0000   69      60/  6/  8 1019.6F
$$

TC  - TEMPERATURE IN CELSIUS
VSB - VISIBILITY IN STATUTE MILES
WCI - WIND CHILL INDEX
HX  - HEAT INDEX




USA.gov is the U.S. government's official web portal to all federal, state and local government web resources and services.